Location: Luxembourg
(49.6117°N, 6.1300°E)
Time: 04:44:33
(UTC+01:00)

Vanguard 2 Rocket - Pass Details

Date: 15 January 2026
Orbit: 553 x 3286 km, 32.9° (Epoch: 10 February)

Event Time Altitude Azimuth Distance (km) Brightness Sun altitude
Exits shadow 04:29:28 25° 186° (S) 3,490 9.6 -37.7°
Drops below altitude 10° 04:39:35 10° 146° (SE) 5,436 11.0 -36.1°
Sets 04:45:40 0° 136° (SE) 6,833 11.8 -35.1°
